PST,Max TemperatureF,Mean TemperatureF,Min TemperatureF,Max Dew PointF,MeanDew PointF,Min DewpointF,Max Humidity, Mean Humidity, Min Humidity, Max Sea Level PressureIn, Mean Sea Level PressureIn, Min Sea Level PressureIn, Max VisibilityMiles, Mean VisibilityMiles, Min VisibilityMiles, Max Wind SpeedMPH, Mean Wind SpeedMPH, Max Gust SpeedMPH,PrecipitationIn, CloudCover, Events, WindDirDegrees
2012-12-1,44,20,-3,43,34,3,93,87,78,29.96,29.53,29.37,20,15,5,15,9,36,0.24,7,Rain,114
2012-12-2,44,25,6,41,33,6,93,86,78,30.04,29.51,29.19,20,19,15,10,5,21,0.08,7,Rain,115
2012-12-3,44,28,11,41,34,16,93,85,76,29.92,29.79,29.39,20,16,8,17,10,28,0.51,7,Rain,109
2012-12-4,44,29,11,43,31,5,87,73,58,30.40,29.71,29.41,20,18,10,16,10,28,0.28,4,Rain,118
2012-12-5,41,24,7,37,29,4,93,81,68,30.25,30.04,29.62,20,20,20,18,7,,0.00,6,Rain,108
2012-12-6,25,26,6,37,32,2,100,85,76,30.04,29.94,29.41,20,20,20,15,6,,0.03,5,,108
2012-12-7,37,15,-10,36,22,-14,93,75,57,30.17,30.01,29.84,20,19,10,14,6,20,0.00,5,Rain,297
2012-12-8,37,7,-23,34,19,-26,93,79,61,30.31,30.25,30.19,20,20,20,7,2,,0.00,7,,280
2012-12-9,37,7,-23,36,20,-28,93,86,61,30.42,30.35,30.26,20,8,1,7,2,,0.00,8,Rain-Snow,86
2012-12-10,39,3,-33,39,24,-32,100,87,60,30.39,30.24,29.81,20,19,15,8,3,,0.00,8,Fog-Rain,110
2012-12-11,39,12,-21,39,26,-26,100,85,62,29.98,29.65,29.55,20,11,6,14,8,21,0.00,8,Rain,104
2012-12-12,37,4,-31,37,18,-38,100,85,54,30.34,29.98,29.75,20,19,15,9,2,,0.00,5,Fog,50
2012-12-13,-11,3,-33,36,20,-40,100,82,51,30.38,30.00,29.78,20,12,6,14,6,23,0.00,8,Rain,108
2012-12-14,39,10,-18,36,25,-19,93,84,69,30.31,29.95,29.83,20,20,20,16,3,,0.00,4,,72
2012-12-15,37,17,-3,36,30,15,96,89,87,29.90,29.57,29.46,8,6,5,25,15,52,0.00,8,Rain,114
2012-12-16,37,28,14,34,29,11,95,86,75,29.85,29.52,29.10,20,17,3,9,6,20,0.08,8,Rain-Snow,108
2012-12-17,33,21,7,32,24,4,100,83,70,29.75,29.55,29.22,20,20,20,14,6,23,0.08,6,,297
2012-12-18,33,16,-10,32,22,-14,93,86,72,29.90,29.85,29.67,20,17,8,8,3,,0.00,5,Snow,113
2012-12-19,5,13,-15,37,26,-6,93,88,77,30.07,29.58,29.42,15,7,0,30,18,48,0.00,8,Rain-Snow,110
2012-12-20,39,12,-16,37,25,-14,93,87,71,30.18,29.70,29.47,20,16,8,7,4,,0.00,7,Rain,114
2012-12-21,39,10,-18,36,23,-17,93,82,61,30.19,29.83,29.71,20,12,5,9,4,,0.00,8,Rain,107
2012-12-22,37,13,-11,36,24,-10,100,90,73,30.13,29.65,29.49,20,14,1,16,2,,0.00,8,Rain-Snow,99
2012-12-23,37,16,-6,37,25,-9,93,86,73,29.99,29.76,29.66,20,16,6,20,9,18,0.00,8,Rain,97
2012-12-24,39,18,-5,36,24,-10,93,84,66,30.15,30.09,29.96,20,20,20,16,6,17,0.00,8,Fog-Rain,110
2012-12-25,33,13,-10,34,22,-14,100,80,61,30.33,29.83,29.65,20,11,2,12,6,23,0.00,8,Rain-Snow,104
2012-12-26,-1,14,-13,39,28,-17,100,91,64,30.39,29.91,29.73,15,8,3,9,1,,0.00,8,Rain,325
2012-12-27,1,20,-5,37,28,-8,100,89,73,30.37,30.15,30.04,20,20,15,8,1,,0.00,6,Rain,78
2012-12-28,39,17,-5,37,26,-7,93,87,72,30.22,30.14,30.04,15,8,5,7,4,,0.00,8,Rain,88
2012-12-29,39,17,-13,37,27,-17,100,90,72,30.22,30.15,29.96,20,20,15,6,2,,0.00,8,Rain,280
2012-12-30,39,9,-21,36,23,-23,93,83,66,30.33,30.23,29.89,20,20,20,8,2,,0.04,8,Rain,108
2012-12-31,-3,10,-18,36,23,-19,100,86,62,30.43,30.29,29.95,15,11,3,12,3,,0.00,7,Rain-Snow,283